Погода в Верхоянске

Россия / Республика Саха (Якутия)     67°33′00″N   133°23′26″E
темп.,
°C
ветер,
м/с
пор.,
м/с
влажн.,
%
обл.,
%
осадки,
мм/ч
давл.,
гПа
погр.,
м
3 марта, ср
ср301:00−40зсз119934 0.0 102619
04:00−39зсз1110052 0.0 102519
07:00−39сз119992 0.0 102518
10:00−36зсз119596 0.0 102351
13:00−34ссз1189100 0.0 1021278
16:00−32ссв1387100 0.1 1019479
19:00−35св1199100 0.1 102019
22:00−36с2398100 0.1 102019
4 марта, чт
чт401:00−38с2297100 0.0 102019
04:00−37ссз1298100 0.1 1020103
07:00−37сз1199100 0.1 102120
10:00−36зсз1195100 0.3 1021171
13:00−35ссз1284100 0.1 1022457
16:00−33ю1187100 0.1 1022292
19:00−34ююз2296100 0.1 102424
22:00−33юз1297100 0.1 102420
5 марта, пт
пт501:00−32юз2298100 0.1 102520
04:00−31юз2297100 0.1 102520
07:00−30юз1198100 0.1 102619
10:00−29з1196100 0.1 102692
13:00−26сз2487100 0.1 1026530
16:00−25сз3587100 0.1 1025630
19:00−27сз2294100 0.0 102619
22:00−28сз2294100 0.1 102719
6 марта, сб
сб601:00−29зсз2294100 0.0 102719
04:00−28зсз1195100 0.1 102821
07:00−29зсз1297100 0.1 102820
10:00−28зсз1195100 0.1 1028132
13:00−26ссз1287100 0.1 1027400
16:00−25ссз1286100 0.1 1026494
19:00−28с0099100 0.0 102719
22:00−31ссв01100100 0.1 102719
7 марта, вс
вс701:00−32вюв0010099 0.0 102619
04:00−32вюв0110099 0.0 102619
07:00−34вюв11100100 0.0 102619
10:00−31юв1196100 0.0 102619
13:00−28вюв1187100 0.0 1024230
16:00−26в1188100 0.0 1024250
19:00−30всв1197100 0.0 102419
22:00−30в1196100 0.0 102419